{"data":{"norad_id":52457,"intl_designator":"2022-049G","name":"STARLINK-3899","alt_names":[],"object_type":"PAYLOAD","status":"ACTIVE","operator":null,"country":"US","launch_date":"2022-05-06","launch_site_code":"AFETR","launch_vehicle":null,"mission":null,"orbit_class":"UNKNOWN","rcs_meters":null,"size_class":null,"mass_kg":null,"dimensions":null,"purposes":["comms"],"wikipedia_slug":null,"has_3d_model":false,"image_url":null,"decayed_at":null,"tle_current":{"epoch":"2026-09-20T04:00:03.000096Z","epoch_age_seconds":88493,"freshness":"FRESH","line1":"1 52457U 22049G   26263.16670139 -.00029050  00000+0 -82460-3 0  9992","line2":"2 52457  53.1606 271.6471 0001322  90.0292   4.0305 15.35417873  5814","mean_motion":15.35417873,"eccentricity":0.0001322,"inclination_deg":53.1606,"raan_deg":271.6471,"arg_perigee_deg":90.0292,"mean_anomaly_deg":4.0305,"bstar":-0.0008246,"rev_number":581,"period_min":93.785543683065,"perigee_km":458.775619233,"apogee_km":460.58353793638,"semimajor_km":6837.8165785847,"source":"CELESTRAK","updated_at":"2026-09-20T09:00:40.032703Z"}}}